Time,TemperatureF,DewpointF,PressureIn,WindDirection,WindDirectionDegrees,WindSpeedMPH,WindSpeedGustMPH,Humidity,HourlyPrecipIn,Conditions,Clouds,dailyrainin,SoftwareType,DateUTC
2013-08-25 00:01:00,57.7,56.0,30.32,WNW,287,1.0,4.0,95,0.00,,,0.00,weatherlink.com 1.10,2013-08-25 04:01:00,
2013-08-25 00:16:00,58.2,57.0,30.32,WNW,290,1.0,3.0,97,0.00,,,0.00,weatherlink.com 1.10,2013-08-25 04:16:00,
2013-08-25 00:31:00,58.9,58.0,30.32,NNW,342,0.0,3.0,95,0.00,,,0.00,weatherlink.com 1.10,2013-08-25 04:31:00,
2013-08-25 00:46:00,58.0,57.0,30.32,NNW,342,0.0,1.0,95,0.00,,,0.00,weatherlink.com 1.10,2013-08-25 04:46:00,
2013-08-25 01:01:00,57.9,57.0,30.32,NNW,342,0.0,1.0,96,0.00,,,0.00,weatherlink.com 1.10,2013-08-25 05:01:00,
2013-08-25 01:16:00,58.1,57.0,30.32,NNW,342,0.0,0.0,96,0.00,,,0.00,weatherlink.com 1.10,2013-08-25 05:16:00,
2013-08-25 01:31:00,58.3,57.0,30.32,NNW,342,0.0,0.0,95,0.00,,,0.00,weatherlink.com 1.10,2013-08-25 05:31:00,
2013-08-25 01:46:00,58.3,57.0,30.32,NNW,342,0.0,0.0,95,0.00,,,0.00,weatherlink.com 1.10,2013-08-25 05:46:00,
2013-08-25 02:01:00,58.0,57.0,30.32,NNW,342,0.0,0.0,95,0.00,,,0.00,weatherlink.com 1.10,2013-08-25 06:01:00,
2013-08-25 02:16:00,58.1,57.0,30.32,NNW,342,0.0,3.0,96,0.00,,,0.00,weatherlink.com 1.10,2013-08-25 06:16:00,
2013-08-25 02:31:00,58.3,57.0,30.32,NNW,342,0.0,0.0,96,0.00,,,0.00,weatherlink.com 1.10,2013-08-25 06:31:00,
2013-08-25 02:46:00,58.1,57.0,30.32,NNW,342,0.0,0.0,96,0.00,,,0.00,weatherlink.com 1.10,2013-08-25 06:46:00,
2013-08-25 03:01:00,57.9,57.0,30.32,NNW,342,0.0,0.0,96,0.00,,,0.00,weatherlink.com 1.10,2013-08-25 07:01:00,
2013-08-25 03:16:00,57.8,57.0,30.32,NNW,342,0.0,0.0,96,0.00,,,0.00,weatherlink.com 1.10,2013-08-25 07:16:00,
2013-08-25 03:31:00,57.8,57.0,30.32,NNW,342,0.0,0.0,96,0.00,,,0.00,weatherlink.com 1.10,2013-08-25 07:31:00,
2013-08-25 03:46:00,58.0,57.0,30.32,NNW,342,0.0,1.0,97,0.00,,,0.00,weatherlink.com 1.10,2013-08-25 07:46:00,
2013-08-25 04:01:00,58.9,58.0,30.32,NNW,342,0.0,0.0,98,0.00,,,0.00,weatherlink.com 1.10,2013-08-25 08:01:00,
2013-08-25 04:16:00,59.4,59.0,30.32,NNW,342,0.0,0.0,98,0.00,,,0.00,weatherlink.com 1.10,2013-08-25 08:16:00,
2013-08-25 04:31:00,59.5,59.0,30.33,NNW,342,0.0,0.0,97,0.00,,,0.00,weatherlink.com 1.10,2013-08-25 08:31:00,
2013-08-25 04:46:00,59.3,59.0,30.33,NNW,342,0.0,0.0,97,0.00,,,0.00,weatherlink.com 1.10,2013-08-25 08:46:00,
2013-08-25 05:01:00,59.1,58.0,30.34,NNW,342,0.0,0.0,97,0.00,,,0.00,weatherlink.com 1.10,2013-08-25 09:01:00,
2013-08-25 05:16:00,58.8,58.0,30.34,NNW,342,0.0,0.0,97,0.00,,,0.00,weatherlink.com 1.10,2013-08-25 09:16:00,
2013-08-25 05:31:00,58.5,58.0,30.34,NNW,342,0.0,0.0,97,0.00,,,0.00,weatherlink.com 1.10,2013-08-25 09:31:00,
2013-08-25 05:46:00,58.5,58.0,30.35,NNW,342,0.0,1.0,97,0.00,,,0.00,weatherlink.com 1.10,2013-08-25 09:46:00,
2013-08-25 06:01:00,58.3,58.0,30.35,NNW,342,0.0,0.0,97,0.00,,,0.00,weatherlink.com 1.10,2013-08-25 10:01:00,
2013-08-25 06:16:00,58.4,58.0,30.36,NNW,342,0.0,2.0,97,0.00,,,0.00,weatherlink.com 1.10,2013-08-25 10:16:00,
2013-08-25 06:31:00,58.0,57.0,30.36,NNW,342,0.0,0.0,97,0.00,,,0.00,weatherlink.com 1.10,2013-08-25 10:31:00,
2013-08-25 06:46:00,57.9,57.0,30.37,NNW,342,0.0,0.0,97,0.00,,,0.00,weatherlink.com 1.10,2013-08-25 10:46:00,
2013-08-25 07:01:00,57.9,57.0,30.38,NNW,342,0.0,0.0,98,0.00,,,0.00,weatherlink.com 1.10,2013-08-25 11:01:00,
2013-08-25 07:16:00,58.4,58.0,30.38,NNW,342,0.0,0.0,98,0.00,,,0.00,weatherlink.com 1.10,2013-08-25 11:16:00,
2013-08-25 07:32:00,59.3,59.0,30.38,NNW,342,0.0,1.0,98,0.00,,,0.00,weatherlink.com 1.10,2013-08-25 11:32:00,
2013-08-25 07:47:00,60.2,60.0,30.38,NNW,342,0.0,1.0,98,0.00,,,0.00,weatherlink.com 1.10,2013-08-25 11:47:00,
2013-08-25 08:02:00,61.3,61.0,30.38,NE,47,1.0,3.0,98,0.00,,,0.00,weatherlink.com 1.10,2013-08-25 12:02:00,
2013-08-25 08:17:00,62.0,61.0,30.38,ENE,61,2.0,3.0,97,0.00,,,0.00,weatherlink.com 1.10,2013-08-25 12:17:00,
2013-08-25 08:32:00,63.4,62.0,30.38,ENE,61,1.0,2.0,96,0.00,,,0.00,weatherlink.com 1.10,2013-08-25 12:32:00,
2013-08-25 08:47:00,65.5,64.0,30.38,ENE,61,1.0,2.0,93,0.00,,,0.00,weatherlink.com 1.10,2013-08-25 12:47:00,
2013-08-25 09:02:00,66.5,63.0,30.39,ENE,63,0.0,3.0,89,0.00,,,0.00,weatherlink.com 1.10,2013-08-25 13:02:00,
2013-08-25 09:17:00,67.9,65.0,30.39,East,80,3.0,3.0,89,0.00,,,0.00,weatherlink.com 1.10,2013-08-25 13:17:00,
2013-08-25 09:32:00,68.8,65.0,30.39,East,97,2.0,5.0,87,0.00,,,0.00,weatherlink.com 1.10,2013-08-25 13:32:00,
2013-08-25 09:47:00,70.1,65.0,30.39,East,97,2.0,3.0,85,0.00,,,0.00,weatherlink.com 1.10,2013-08-25 13:47:00,
2013-08-25 10:02:00,70.9,66.0,30.39,East,84,1.0,5.0,83,0.00,,,0.00,weatherlink.com 1.10,2013-08-25 14:02:00,
2013-08-25 10:17:00,71.0,66.0,30.39,ENE,67,2.0,6.0,83,0.00,,,0.00,weatherlink.com 1.10,2013-08-25 14:17:00,
2013-08-25 10:32:00,71.8,67.0,30.38,East,93,3.0,5.0,84,0.00,,,0.00,weatherlink.com 1.10,2013-08-25 14:32:00,
2013-08-25 10:47:00,72.6,66.0,30.38,ESE,112,3.0,7.0,79,0.00,,,0.00,weatherlink.com 1.10,2013-08-25 14:47:00,
2013-08-25 11:02:00,73.0,65.0,30.38,East,97,3.0,5.0,77,0.00,,,0.00,weatherlink.com 1.10,2013-08-25 15:02:00,
2013-08-25 11:17:00,73.6,66.0,30.37,East,93,5.0,7.0,76,0.00,,,0.00,weatherlink.com 1.10,2013-08-25 15:17:00,
2013-08-25 11:33:00,74.0,66.0,30.38,SSE,151,1.0,7.0,77,0.00,,,0.00,weatherlink.com 1.10,2013-08-25 15:33:00,
2013-08-25 11:48:00,74.4,66.0,30.38,SE,128,5.0,7.0,76,0.00,,,0.00,weatherlink.com 1.10,2013-08-25 15:48:00,
2013-08-25 12:03:00,74.8,66.0,30.38,ENE,76,4.0,10.0,74,0.00,,,0.00,weatherlink.com 1.10,2013-08-25 16:03:00,
2013-08-25 12:18:00,75.0,66.0,30.37,SE,126,5.0,6.0,74,0.00,,,0.00,weatherlink.com 1.10,2013-08-25 16:18:00,
2013-08-25 12:33:00,75.3,66.0,30.37,East,88,6.0,9.0,73,0.00,,,0.00,weatherlink.com 1.10,2013-08-25 16:33:00,
2013-08-25 12:48:00,75.8,66.0,30.36,East,87,2.0,8.0,72,0.00,,,0.00,weatherlink.com 1.10,2013-08-25 16:48:00,
2013-08-25 13:03:00,75.4,64.0,30.36,SE,146,2.0,5.0,67,0.00,,,0.00,weatherlink.com 1.10,2013-08-25 17:03:00,
2013-08-25 13:18:00,76.6,65.0,30.36,SE,125,4.0,9.0,67,0.00,,,0.00,weatherlink.com 1.10,2013-08-25 17:18:00,
2013-08-25 13:33:00,77.2,64.0,30.35,East,82,0.0,11.0,64,0.00,,,0.00,weatherlink.com 1.10,2013-08-25 17:33:00,
2013-08-25 13:48:00,77.3,65.0,30.35,East,84,5.0,7.0,65,0.00,,,0.00,weatherlink.com 1.10,2013-08-25 17:48:00,
2013-08-25 14:03:00,77.7,62.0,30.34,ENE,69,3.0,8.0,59,0.00,,,0.00,weatherlink.com 1.10,2013-08-25 18:03:00,
2013-08-25 14:18:00,77.8,64.0,30.34,ENE,76,2.0,8.0,63,0.00,,,0.00,weatherlink.com 1.10,2013-08-25 18:18:00,
2013-08-25 14:33:00,77.7,64.0,30.33,SE,142,2.0,6.0,62,0.00,,,0.00,weatherlink.com 1.10,2013-08-25 18:33:00,
2013-08-25 14:48:00,78.6,64.0,30.33,SSE,148,1.0,5.0,62,0.00,,,0.00,weatherlink.com 1.10,2013-08-25 18:48:00,
2013-08-25 15:03:00,78.7,64.0,30.32,ESE,119,4.0,8.0,61,0.00,,,0.00,weatherlink.com 1.10,2013-08-25 19:03:00,
2013-08-25 15:18:00,78.7,63.0,30.32,South,174,2.0,7.0,59,0.00,,,0.00,weatherlink.com 1.10,2013-08-25 19:18:00,
2013-08-25 15:33:00,78.9,64.0,30.32,ESE,115,1.0,5.0,61,0.00,,,0.00,weatherlink.com 1.10,2013-08-25 19:33:00,
2013-08-25 15:48:00,78.2,62.0,30.31,ESE,107,3.0,11.0,58,0.00,,,0.00,weatherlink.com 1.10,2013-08-25 19:48:00,
2013-08-25 16:03:00,78.2,63.0,30.31,ESE,116,2.0,7.0,59,0.00,,,0.00,weatherlink.com 1.10,2013-08-25 20:03:00,
2013-08-25 16:18:00,78.4,63.0,30.31,NE,45,2.0,5.0,59,0.00,,,0.00,weatherlink.com 1.10,2013-08-25 20:18:00,
2013-08-25 16:33:00,77.4,64.0,30.31,ENE,57,3.0,6.0,64,0.00,,,0.00,weatherlink.com 1.10,2013-08-25 20:33:00,
2013-08-25 16:48:00,77.8,65.0,30.30,East,82,2.0,7.0,64,0.00,,,0.00,weatherlink.com 1.10,2013-08-25 20:48:00,
2013-08-25 17:03:00,78.1,62.0,30.30,ESE,114,1.0,6.0,59,0.00,,,0.00,weatherlink.com 1.10,2013-08-25 21:03:00,
2013-08-25 17:18:00,78.0,63.0,30.29,East,82,5.0,7.0,60,0.00,,,0.00,weatherlink.com 1.10,2013-08-25 21:18:00,
2013-08-25 17:33:00,77.8,63.0,30.30,East,96,5.0,7.0,61,0.00,,,0.00,weatherlink.com 1.10,2013-08-25 21:33:00,
2013-08-25 17:48:00,77.7,63.0,30.29,ESE,111,3.0,8.0,60,0.00,,,0.00,weatherlink.com 1.10,2013-08-25 21:48:00,
2013-08-25 18:03:00,77.6,64.0,30.29,SE,138,3.0,6.0,63,0.00,,,0.00,weatherlink.com 1.10,2013-08-25 22:03:00,
2013-08-25 18:18:00,77.3,64.0,30.29,ESE,105,1.0,4.0,63,0.00,,,0.00,weatherlink.com 1.10,2013-08-25 22:18:00,
2013-08-25 18:33:00,76.8,63.0,30.28,SE,126,3.0,5.0,63,0.00,,,0.00,weatherlink.com 1.10,2013-08-25 22:33:00,
2013-08-25 18:48:00,76.1,63.0,30.27,ESE,112,1.0,5.0,64,0.00,,,0.00,weatherlink.com 1.10,2013-08-25 22:48:00,
2013-08-25 19:03:00,75.2,63.0,30.27,ESE,112,1.0,3.0,66,0.00,,,0.00,weatherlink.com 1.10,2013-08-25 23:03:00,
2013-08-25 19:18:00,74.2,63.0,30.27,ESE,105,0.0,3.0,68,0.00,,,0.00,weatherlink.com 1.10,2013-08-25 23:18:00,
2013-08-25 19:33:00,71.8,64.0,30.27,ESE,105,1.0,1.0,76,0.00,,,0.00,weatherlink.com 1.10,2013-08-25 23:33:00,
2013-08-25 19:48:00,69.6,64.0,30.27,ESE,105,0.0,0.0,81,0.00,,,0.00,weatherlink.com 1.10,2013-08-25 23:48:00,
2013-08-25 20:03:00,68.4,63.0,30.27,ESE,105,0.0,1.0,84,0.00,,,0.00,weatherlink.com 1.10,2013-08-26 00:03:00,
2013-08-25 20:18:00,66.8,63.0,30.27,ESE,105,0.0,2.0,87,0.00,,,0.00,weatherlink.com 1.10,2013-08-26 00:18:00,
2013-08-25 20:33:00,65.8,63.0,30.27,ESE,105,0.0,1.0,89,0.00,,,0.00,weatherlink.com 1.10,2013-08-26 00:33:00,
2013-08-25 20:48:00,65.3,62.0,30.27,ESE,105,0.0,1.0,90,0.00,,,0.00,weatherlink.com 1.10,2013-08-26 00:48:00,
2013-08-25 21:03:00,65.4,63.0,30.27,ESE,105,0.0,3.0,90,0.00,,,0.00,weatherlink.com 1.10,2013-08-26 01:03:00,
2013-08-25 21:18:00,64.7,62.0,30.28,ESE,105,0.0,1.0,90,0.00,,,0.00,weatherlink.com 1.10,2013-08-26 01:18:00,
2013-08-25 21:33:00,64.6,62.0,30.28,ESE,105,0.0,1.0,91,0.00,,,0.00,weatherlink.com 1.10,2013-08-26 01:33:00,
2013-08-25 21:48:00,66.0,62.0,30.29,SSE,160,2.0,3.0,88,0.00,,,0.00,weatherlink.com 1.10,2013-08-26 01:48:00,
2013-08-25 22:03:00,65.2,62.0,30.28,SSE,160,2.0,3.0,90,0.00,,,0.00,weatherlink.com 1.10,2013-08-26 02:03:00,
2013-08-25 22:18:00,64.8,62.0,30.29,SSW,200,0.0,4.0,89,0.00,,,0.00,weatherlink.com 1.10,2013-08-26 02:18:00,
2013-08-25 22:33:00,65.6,62.0,30.29,SSW,200,2.0,4.0,87,0.00,,,0.00,weatherlink.com 1.10,2013-08-26 02:33:00,
2013-08-25 22:48:00,65.8,62.0,30.29,SSW,200,2.0,4.0,87,0.00,,,0.00,weatherlink.com 1.10,2013-08-26 02:48:00,
2013-08-25 23:03:00,66.1,62.0,30.30,SSW,200,2.0,3.0,86,0.00,,,0.00,weatherlink.com 1.10,2013-08-26 03:03:00,
2013-08-25 23:18:00,65.4,62.0,30.30,SSW,200,1.0,3.0,87,0.00,,,0.00,weatherlink.com 1.10,2013-08-26 03:18:00,
2013-08-25 23:33:00,64.8,61.0,30.30,SSW,200,0.0,3.0,88,0.00,,,0.00,weatherlink.com 1.10,2013-08-26 03:33:00,
2013-08-25 23:48:00,63.3,61.0,30.30,SSW,200,2.0,3.0,91,0.00,,,0.00,weatherlink.com 1.10,2013-08-26 03:48:00,